This demonstration page uses our WeatherBlox Daily Observations layout. Learn more.

Left ArrowRight Arrow

Hourly Observations for February 9, 2023

Temp ( °F °C ) Dew Point ( °F °C ) Humidity (%) Winds ( mph kmh ) Pressure ( in mb ) Visibility ( mi km ) Precip ( " mm )
12:15 am 00:15 Clear 46 8 37 3 71 71 Calm 30.34 1027 10 16 0.00 0.00
12:35 am 00:35 Clear 41 5 37 3 87 87 Calm 30.34 1027 10 16 0.00 0.00
12:55 am 00:55 Clear 43 6 37 3 81 81 Calm 30.34 1027 10 16 0.00 0.00
1:15 am 01:15 Clear 46 8 37 3 71 71 NNE 3 6 30.33 1027 10 16 0.00 0.00
1:35 am 01:35 Clear 46 8 37 3 71 71 NE 6 9 30.33 1027 10 16 0.00 0.00
1:55 am 01:55 Clear 45 7 37 3 76 76 Calm 30.33 1027 10 16 0.00 0.00
2:15 am 02:15 Clear 45 7 37 3 76 76 Calm 30.32 1027 10 16 0.00 0.00
2:35 am 02:35 Clear 43 6 37 3 81 81 Calm 30.32 1027 10 16 0.00 0.00
2:55 am 02:55 Clear 43 6 37 3 81 81 Calm 30.32 1027 10 16 0.00 0.00
3:15 am 03:15 Clear 41 5 37 3 87 87 Calm 30.31 1026 10 16 0.00 0.00
3:35 am 03:35 Clear 41 5 37 3 87 87 Calm 30.31 1026 10 16 0.00 0.00
3:55 am 03:55 Clear 39 4 37 3 93 93 Calm 30.31 1026 10 16 0.00 0.00
4:15 am 04:15 Clear 39 4 37 3 93 93 Calm 30.31 1026 10 16 0.00 0.00
4:35 am 04:35 Clear 39 4 37 3 93 93 Calm 30.31 1026 10 16 0.00 0.00
4:55 am 04:55 Clear 39 4 37 3 93 93 Calm 30.32 1027 10 16 0.00 0.00
5:15 am 05:15 Clear 41 5 37 3 87 87 Calm 30.32 1027 10 16 0.00 0.00
5:35 am 05:35 Clear 39 4 36 2 87 87 E 5 7 30.32 1027 10 16 0.00 0.00
5:55 am 05:55 Clear 41 5 37 3 87 87 ESE 6 9 30.32 1027 10 16 0.00 0.00
6:15 am 06:15 Clear 41 5 37 3 87 87 SE 5 7 30.32 1027 10 16 0.00 0.00
6:35 am 06:35 Clear 41 5 37 3 87 87 ESE 5 7 30.32 1027 10 16 0.00 0.00
6:47 am 06:47 Clear 41 5 37 3 87 87 E 6 9 30.32 1027 10 16 0.00 0.00
6:55 am 06:55 Clear 41 5 37 3 87 87 Calm 30.32 1027 10 16 0.00 0.00
7:15 am 07:15 Sunny 39 4 36 2 87 87 Calm 30.33 1027 10 16 0.00 0.00
7:35 am 07:35 Sunny 41 5 37 3 87 87 Calm 30.33 1027 10 16 0.00 0.00
7:47 am 07:47 Sunny 41 5 37 3 87 87 ENE 3 6 30.34 1027 10 16 0.00 0.00
7:55 am 07:55 Sunny 41 5 37 3 87 87 Calm 30.34 1027 10 16 0.00 0.00
8:15 am 08:15 Sunny 45 7 37 3 76 76 Calm 30.34 1027 10 16 0.00 0.00
8:47 am 08:47 Sunny 46 8 39 4 76 76 Calm 30.34 1027 10 16 0.00 0.00
9:47 am 09:47 Sunny 50 10 41 5 71 71 Calm 30.33 1027 10 16 0.00 0.00
10:47 am 10:47 Sunny 55 13 43 6 62 62 Calm 30.32 1027 10 16 0.00 0.00
11:47 am 11:47 Sunny 57 14 43 6 58 58 SE 8 13 30.30 1026 10 16 0.00 0.00
12:47 pm 12:47 Sunny 61 16 45 7 55 55 S 9 15 30.28 1025 10 16 0.00 0.00
1:47 pm 13:47 Sunny 61 16 43 6 51 51 S 10 17 30.26 1025 10 16 0.00 0.00
3:47 pm 15:47 Sunny 63 17 45 7 52 52 SSE 9 15 30.26 1025 10 16 0.00 0.00
4:47 pm 16:47 Sunny 61 16 45 7 55 55 SE 9 15 30.25 1024 10 16 0.00 0.00
5:47 pm 17:47 Clear 59 15 45 7 59 59 VRB 6 9 30.26 1025 10 16 0.00 0.00
6:47 pm 18:47 Clear 54 12 43 6 67 67 VRB 6 9 30.27 1025 10 16 0.00 0.00
10:15 pm 22:15 Clear 48 9 45 7 87 87 Calm 30.27 1025 10 16 0.00 0.00
10:35 pm 22:35 Clear 48 9 43 6 81 81 E 3 6 30.26 1025 10 16 0.00 0.00
10:55 pm 22:55 Clear 48 9 43 6 81 81 Calm 30.26 1025 10 16 0.00 0.00
11:15 pm 23:15 Clear 46 8 41 5 81 81 Calm 30.26 1025 10 16 0.00 0.00
11:35 pm 23:35 Clear 46 8 41 5 81 81 Calm 30.26 1025 10 16 0.00 0.00
11:55 pm 23:55 Clear 45 7 41 5 87 87 Calm 30.26 1025 10 16 0.00 0.00

Powered by AerisWeather